This is the latest recevied weather packets stored in our database for station/object KE4EST. If no packets are shown the sender has not sent any weather packets the latest 10 day(s).
| Time | Temp. | Humidity | Pressure | Rain* | Wind** | Luminosity | Snow |
|---|---|---|---|---|---|---|---|
| 1778178800 | 17.78° C | 81% | 1013 hPa | 0 mm | - | 716 W/m² | - |
| 1778178497 | 17.78° C | 86% | 1012.8 hPa | 0 mm | - | 724 W/m² | - |
| 1778178193 | 16.67° C | 84% | 1013.1 hPa | 0 mm | - | 516 W/m² | - |
| 1778177889 | 17.22° C | 82% | 1013.3 hPa | 0 mm | - | 275 W/m² | - |
| 1778177585 | 17.78° C | 83% | 1012.9 hPa | 0 mm | - | 715 W/m² | - |
| 1778177282 | 18.33° C | 84% | 1013.2 hPa | 0 mm | - | 626 W/m² | - |
| 1778176979 | 17.78° C | 85% | 1013.3 hPa | 0 mm | - | 768 W/m² | - |
| 1778176674 | 17.22° C | 85% | 1013.2 hPa | 0 mm | - | 438 W/m² | - |
| 1778176372 | 17.22° C | 84% | 1013 hPa | 0 mm | - | 520 W/m² | - |
| 1778176069 | 17.22° C | 86% | 1013.3 hPa | 0 mm | - | 556 W/m² | - |
| 1778175767 | 16.67° C | 87% | 1013 hPa | 0 mm | - | 991 W/m² | - |
| 1778175464 | 16.67° C | 88% | 1013.3 hPa | 0 mm | - | 287 W/m² | - |
| 1778175161 | 16.11° C | 88% | 1013.6 hPa | 0 mm | - | 383 W/m² | - |
| 1778174857 | 15.56° C | 91% | 1013.6 hPa | 0 mm | - | 417 W/m² | - |
| 1778174549 | 15° C | 92% | 1013.6 hPa | 0 mm | - | 166 W/m² | - |
| 1778174249 | 15.56° C | 92% | 1013.3 hPa | 0 mm | - | 189 W/m² | - |
| 1778173947 | 15° C | 92% | 1013.6 hPa | 0 mm | - | 204 W/m² | - |
| 1778173644 | 15° C | 92% | 1013.7 hPa | 0 mm | - | 179 W/m² | - |
| 1778173340 | 15° C | 94% | 1013.6 hPa | 0 mm | - | 167 W/m² | - |
| 1778173036 | 15° C | 94% | 1013.4 hPa | 0 mm | - | 207 W/m² | - |
| 1778172732 | 15° C | 95% | 1013.3 hPa | 0 mm | - | 156 W/m² | - |
| 1778172428 | 14.44° C | 95% | 1013.6 hPa | 0 mm | - | 137 W/m² | - |
| 1778172126 | 14.44° C | 96% | 1013.4 hPa | 0 mm | - | 91 W/m² | - |
| 1778171823 | 15° C | 95% | 1013.3 hPa | 0 mm | - | 84 W/m² | - |
| 1778171521 | 14.44° C | 95% | 1013.5 hPa | 0 mm | - | 124 W/m² | - |
* Rain latest hour (hover to see other rain measurements)
** Current wind speed in m/s (hover to see current wind gust speed)